| time (UTC) | temp F | wind direction | speed MPH | gust MPH | rain 1hr in | rain 24hr in | rain mn in | humidity % | barometer mb |
| 20260903064546 | 70 | 209 | 2.0 | 8.0 | 0.00 | 0.00 | 0.00 | 95 | 1011.1 |
| 20260903064040 | 70 | 236 | 2.0 | 8.0 | 0.00 | 0.00 | 0.00 | 95 | 1011.2 |
| 20260903063534 | 70 | 200 | 1.0 | 6.0 | 0.00 | 0.00 | 0.00 | 95 | 1011.1 |
| 20260903062522 | 70 | 228 | 1.0 | 6.0 | 0.00 | 0.00 | 0.00 | 95 | 1011.2 |
| 20260903062016 | 70 | 219 | 2.0 | 9.0 | 0.00 | 0.00 | 0.00 | 95 | 1011.0 |
| 20260903061510 | 70 | 191 | 2.0 | 10.0 | 0.00 | 0.00 | 0.00 | 95 | 1011.0 |
| 20260903060459 | 70 | 155 | 2.0 | 7.0 | 0.00 | 0.00 | 0.00 | 95 | 1011.2 |
| 20260903055952 | 70 | 227 | 3.0 | 9.0 | 0.00 | 0.00 | 0.00 | 95 | 1011.1 |
| 20260903054939 | 70 | 184 | 3.0 | 8.0 | 0.00 | 0.00 | 0.00 | 95 | 1010.9 |
| 20260903054433 | 70 | 209 | 3.0 | 9.0 | 0.00 | 0.00 | 0.00 | 95 | 1010.8 |
| 20260903053926 | 70 | 223 | 4.0 | 9.0 | 0.00 | 0.00 | 0.00 | 95 | 1010.9 |
| 20260903053421 | 70 | 204 | 4.0 | 8.0 | 0.00 | 0.00 | 0.00 | 95 | 1010.9 |
| 20260903052914 | 70 | 215 | 5.0 | 8.0 | 0.00 | 0.00 | 0.00 | 95 | 1010.9 |
| 20260903052408 | 70 | 227 | 4.0 | 8.0 | 0.00 | 0.00 | 0.00 | 96 | 1010.8 |
| 20260903051356 | 70 | 195 | 0.0 | 5.0 | 0.00 | 0.00 | 0.00 | 95 | 1010.7 |
| 20260903050850 | 70 | 213 | 0.0 | 5.0 | 0.00 | 0.00 | 0.00 | 95 | 1010.8 |
| 20260903050346 | 70 | 182 | 0.0 | 3.0 | 0.00 | 0.00 | 0.00 | 95 | 1010.7 |
| 20260903045838 | 70 | 271 | 0.0 | 7.0 | 0.00 | 0.00 | 0.00 | 95 | 1010.8 |
| 20260903045333 | 70 | 220 | 0.0 | 7.0 | 0.00 | 0.00 | 0.00 | 95 | 1010.7 |
| 20260903044320 | 70 | 153 | 3.0 | 9.0 | 0.00 | 0.00 | 0.00 | 95 | 1010.9 |
| 20260903043814 | 70 | 221 | 3.0 | 11.0 | 0.00 | 0.00 | 0.00 | 96 | 1010.8 |
| 20260903043308 | 70 | 205 | 4.0 | 11.0 | 0.00 | 0.00 | 0.00 | 96 | 1010.9 |
| 20260903042803 | 70 | 250 | 5.0 | 13.0 | 0.00 | 0.00 | 0.00 | 96 | 1010.9 |
| 20260903042256 | 70 | 223 | 5.0 | 13.0 | 0.00 | 0.00 | 0.00 | 96 | 1010.9 |
| 20260903041751 | 70 | 210 | 4.0 | 11.0 | 0.00 | 0.00 | 0.00 | 96 | 1011.0 |
| 20260903041244 | 71 | 198 | 4.0 | 12.0 | 0.00 | 0.00 | 0.00 | 96 | 1011.1 |
| 20260903040737 | 71 | 0 | 5.0 | 12.0 | 0.00 | 0.00 | 0.00 | 96 | 1011.1 |
| 20260903040239 | 71 | 188 | 5.0 | 15.0 | 0.00 | 0.00 | 0.00 | 96 | 1011.0 |
| 20260903035739 | 71 | 186 | 6.0 | 15.0 | 0.00 | 0.00 | 0.00 | 96 | 1010.9 |
| 20260903035236 | 71 | 205 | 6.0 | 15.0 | 0.00 | 0.00 | 0.00 | 96 | 1010.8 |
| 20260903034736 | 71 | 258 | 5.0 | 15.0 | 0.00 | 0.00 | 0.00 | 96 | 1010.8 |
| 20260903033735 | 71 | 212 | 5.0 | 12.0 | 0.00 | 0.00 | 0.00 | 96 | 1010.9 |
| 20260903033234 | 71 | 201 | 4.0 | 12.0 | 0.00 | 0.00 | 0.00 | 96 | 1010.9 |
| 20260903032736 | 71 | 182 | 4.0 | 9.0 | 0.00 | 0.00 | 0.00 | 95 | 1010.9 |
| 20260903032234 | 71 | 162 | 4.0 | 9.0 | 0.00 | 0.00 | 0.00 | 95 | 1010.9 |
| 20260903031734 | 71 | 207 | 3.0 | 8.0 | 0.00 | 0.00 | 0.00 | 95 | 1011.0 |
| 20260903031234 | 72 | 156 | 3.0 | 9.0 | 0.00 | 0.00 | 0.00 | 96 | 1010.9 |
| 20260903030234 | 72 | 198 | 0.0 | 4.0 | 0.00 | 0.00 | 0.00 | 95 | 1011.0 |
| 20260903025735 | 72 | 205 | 0.0 | 3.0 | 0.00 | 0.00 | 0.00 | 95 | 1011.0 |
| 20260903025234 | 72 | 247 | 1.0 | 7.0 | 0.00 | 0.00 | 0.00 | 95 | 1010.9 |
| 20260903024733 | 72 | 230 | 1.0 | 7.0 | 0.00 | 0.00 | 0.00 | 95 | 1010.8 |
| 20260903024230 | 72 | 230 | 1.0 | 6.0 | 0.00 | 0.00 | 0.00 | 95 | 1010.8 |
| 20260903022212 | 71 | 350 | 0.0 | 0.0 | 0.00 | 0.00 | 0.00 | 95 | 1011.1 |
| 20260903020654 | 71 | 350 | 0.0 | 6.0 | 0.00 | 0.00 | 0.00 | 94 | 1010.8 |
| 20260903020149 | 71 | 350 | 1.0 | 6.0 | 0.00 | 0.00 | 0.00 | 94 | 1010.9 |
| 20260903015137 | 72 | 153 | 3.0 | 11.0 | 0.00 | 0.00 | 0.00 | 94 | 1010.9 |
| 20260903014630 | 72 | 170 | 3.0 | 11.0 | 0.00 | 0.00 | 0.00 | 93 | 1010.7 |
| 20260903014130 | 72 | 217 | 3.0 | 11.0 | 0.00 | 0.00 | 0.00 | 93 | 1010.7 |
| 20260903013631 | 72 | 182 | 0.0 | 6.0 | 0.00 | 0.00 | 0.00 | 92 | 1010.4 |
| 20260903013131 | 72 | 171 | 1.0 | 5.0 | 0.00 | 0.00 | 0.00 | 92 | 1010.4 |
| 20260903012630 | 72 | 169 | 4.0 | 9.0 | 0.00 | 0.00 | 0.00 | 92 | 1010.2 |
| 20260903011128 | 73 | 192 | 9.0 | 18.0 | 0.00 | 0.00 | 0.00 | 90 | 1009.9 |
| 20260903010628 | 73 | 153 | 9.0 | 15.0 | 0.00 | 0.00 | 0.00 | 90 | 1010.2 |
| 20260903005628 | 73 | 171 | 10.0 | 16.0 | 0.00 | 0.00 | 0.00 | 90 | 1010.5 |
| 20260903005127 | 74 | 169 | 10.0 | 16.0 | 0.00 | 0.00 | 0.00 | 90 | 1010.6 |
| 20260903004627 | 74 | 141 | 9.0 | 16.0 | 0.00 | 0.00 | 0.00 | 90 | 1010.6 |
| 20260903004125 | 74 | 169 | 7.0 | 12.0 | 0.00 | 0.00 | 0.00 | 90 | 1010.8 |
| 20260903003625 | 74 | 162 | 7.0 | 11.0 | 0.00 | 0.00 | 0.00 | 90 | 1010.9 |
| 20260903003125 | 74 | 159 | 9.0 | 15.0 | 0.00 | 0.00 | 0.00 | 90 | 1010.8 |
| 20260903002622 | 74 | 152 | 10.0 | 15.0 | 0.00 | 0.00 | 0.00 | 89 | 1010.7 |
| 20260903002123 | 74 | 165 | 11.0 | 16.0 | 0.00 | 0.00 | 0.00 | 89 | 1010.7 |
| 20260903001622 | 74 | 161 | 11.0 | 17.0 | 0.00 | 0.00 | 0.00 | 89 | 1010.8 |
| 20260903001123 | 74 | 169 | 11.0 | 17.0 | 0.00 | 0.00 | 0.00 | 89 | 1010.7 |
| 20260903000623 | 74 | 161 | 12.0 | 19.0 | 0.00 | 0.00 | 0.00 | 89 | 1010.6 |
| 20260903000122 | 74 | 142 | 13.0 | 19.0 | 0.00 | 0.00 | 0.00 | 89 | 1010.4 |
| 20260902234616 | 74 | 157 | 7.0 | 11.0 | 0.00 | 0.00 | 0.00 | 92 | 1010.8 |
| 20260902234110 | 74 | 157 | 6.0 | 10.0 | 0.00 | 0.00 | 0.00 | 92 | 1010.9 |
| 20260902232556 | 74 | 160 | 4.0 | 6.0 | 0.00 | 0.00 | 0.00 | 91 | 1010.9 |
| 20260902231538 | 75 | 172 | 3.0 | 6.0 | 0.00 | 0.00 | 0.00 | 89 | 1011.0 |
| 20260902231030 | 75 | 0 | 2.0 | 5.0 | 0.00 | 0.00 | 0.00 | 88 | 1010.9 |
| 20260902230524 | 75 | 165 | 1.0 | 5.0 | 0.00 | 0.00 | 0.00 | 87 | 1011.0 |
| 20260902230018 | 76 | 166 | 0.0 | 4.0 | 0.00 | 0.00 | 0.00 | 86 | 1010.9 |
| 20260902225006 | 76 | 177 | 0.0 | 1.0 | 0.00 | 0.00 | 0.00 | 86 | 1010.9 |
| 20260902224500 | 76 | 155 | 0.0 | 1.0 | 0.00 | 0.00 | 0.00 | 86 | 1011.0 |
| 20260902223955 | 75 | 155 | 0.0 | 0.0 | 0.00 | 0.00 | 0.00 | 86 | 1011.0 |
| 20260902223448 | 75 | 151 | 0.0 | 0.0 | 0.00 | 0.00 | 0.00 | 87 | 1010.7 |
| 20260902222943 | 75 | 200 | 0.0 | 0.0 | 0.00 | 0.00 | 0.00 | 87 | 1010.7 |
| 20260902222436 | 75 | 200 | 0.0 | 0.0 | 0.00 | 0.00 | 0.00 | 88 | 1010.7 |
| 20260902221931 | 75 | 217 | 0.0 | 0.0 | 0.00 | 0.00 | 0.00 | 88 | 1010.8 |
| 20260902221424 | 75 | 218 | 0.0 | 3.0 | 0.00 | 0.00 | 0.00 | 88 | 1010.8 |
| 20260902214908 | 76 | 173 | 0.0 | 3.0 | 0.00 | 0.00 | 0.00 | 84 | 1011.2 |
| 20260902214410 | 76 | 174 | 0.0 | 3.0 | 0.00 | 0.00 | 0.00 | 83 | 1011.6 |
| 20260902213906 | 76 | 192 | 1.0 | 3.0 | 0.00 | 0.00 | 0.00 | 83 | 1011.8 |
| 20260902212902 | 76 | 196 | 1.0 | 5.0 | 0.00 | 0.00 | 0.00 | 84 | 1011.9 |
| 20260902211904 | 76 | 217 | 3.0 | 6.0 | 0.00 | 0.00 | 0.00 | 84 | 1012.0 |
| 20260902210902 | 77 | 165 | 5.0 | 12.0 | 0.00 | 0.00 | 0.00 | 83 | 1012.0 |
| 20260902210402 | 77 | 170 | 5.0 | 12.0 | 0.00 | 0.00 | 0.00 | 80 | 1012.1 |
| 20260902205902 | 77 | 228 | 4.0 | 12.0 | 0.00 | 0.00 | 0.00 | 79 | 1012.4 |
| 20260902204902 | 78 | 224 | 4.0 | 12.0 | 0.00 | 0.00 | 0.00 | 80 | 1013.1 |
| 20260902204402 | 78 | 252 | 3.0 | 12.0 | 0.00 | 0.00 | 0.00 | 80 | 1013.4 |
| 20260902203902 | 78 | 200 | 3.0 | 10.0 | 0.00 | 0.00 | 0.00 | 80 | 1013.2 |
| 20260902203402 | 78 | 214 | 4.0 | 13.0 | 0.00 | 0.00 | 0.00 | 80 | 1013.1 |
| 20260902202900 | 77 | 223 | 4.0 | 13.0 | 0.00 | 0.00 | 0.00 | 80 | 1012.9 |
| 20260902202400 | 77 | 225 | 5.0 | 14.0 | 0.00 | 0.00 | 0.00 | 81 | 1012.8 |
| 20260902201858 | 77 | 0 | 5.0 | 14.0 | 0.00 | 0.00 | 0.00 | 82 | 1012.7 |
| 20260902201359 | 77 | 144 | 5.0 | 10.0 | 0.00 | 0.00 | 0.00 | 82 | 1012.6 |
| 20260902200858 | 77 | 148 | 5.0 | 9.0 | 0.00 | 0.00 | 0.00 | 83 | 1012.7 |
| 20260902200358 | 77 | 186 | 6.0 | 9.0 | 0.00 | 0.00 | 0.00 | 82 | 1012.5 |
| 20260902195859 | 77 | 148 | 4.0 | 9.0 | 0.00 | 0.00 | 0.00 | 81 | 1012.5 |
| 20260902194858 | 78 | 164 | 3.0 | 9.0 | 0.00 | 0.00 | 0.00 | 79 | 1013.2 |
| 20260902194359 | 77 | 224 | 2.0 | 8.0 | 0.00 | 0.00 | 0.00 | 80 | 1013.4 |
| 20260902193858 | 77 | 211 | 2.0 | 7.0 | 0.00 | 0.00 | 0.00 | 81 | 1013.4 |
| 20260902193358 | 77 | 169 | 4.0 | 9.0 | 0.00 | 0.00 | 0.00 | 82 | 1013.4 |
| 20260902192858 | 77 | 153 | 4.0 | 9.0 | 0.00 | 0.00 | 0.00 | 81 | 1013.3 |
| 20260902192359 | 78 | 175 | 5.0 | 10.0 | 0.00 | 0.00 | 0.00 | 80 | 1013.3 |
| 20260902191858 | 78 | 212 | 5.0 | 10.0 | 0.00 | 0.00 | 0.00 | 79 | 1013.4 |
| 20260902191358 | 78 | 166 | 5.0 | 10.0 | 0.00 | 0.00 | 0.00 | 78 | 1013.4 |
| 20260902190858 | 78 | 185 | 5.0 | 9.0 | 0.00 | 0.00 | 0.00 | 78 | 1013.4 |
| 20260902190358 | 78 | 143 | 5.0 | 10.0 | 0.00 | 0.00 | 0.00 | 79 | 1013.5 |
| 20260902185900 | 77 | 192 | 7.0 | 10.0 | 0.00 | 0.00 | 0.00 | 79 | 1013.5 |
| 20260902185354 | 77 | 0 | 6.0 | 10.0 | 0.00 | 0.00 | 0.00 | 80 | 1013.4 |
| 20260902184854 | 77 | 225 | 6.0 | 10.0 | 0.00 | 0.00 | 0.00 | 83 | 1013.4 |
| 20260902184354 | 78 | 161 | 7.0 | 11.0 | 0.00 | 0.00 | 0.00 | 83 | 1013.4 |
| 20260902183857 | 78 | 173 | 8.0 | 11.0 | 0.00 | 0.00 | 0.00 | 81 | 1013.3 |
| 20260902183354 | 78 | 173 | 6.0 | 11.0 | 0.00 | 0.00 | 0.00 | 82 | 1013.3 |
| 20260902182854 | 78 | 171 | 5.0 | 9.0 | 0.00 | 0.00 | 0.00 | 84 | 1013.4 |
| 20260902181854 | 77 | 161 | 7.0 | 11.0 | 0.00 | 0.00 | 0.00 | 85 | 1013.5 |
| 20260902180854 | 76 | 159 | 6.0 | 12.0 | 0.00 | 0.00 | 0.00 | 87 | 1013.4 |
| 20260902174853 | 76 | 0 | 5.0 | 8.0 | 0.00 | 0.00 | 0.00 | 86 | 1013.7 |
| 20260902174353 | 76 | 196 | 6.0 | 10.0 | 0.00 | 0.00 | 0.00 | 86 | 1013.9 |
| 20260902173853 | 76 | 170 | 6.0 | 10.0 | 0.00 | 0.00 | 0.00 | 85 | 1013.9 |
| 20260902173352 | 77 | 176 | 7.0 | 13.0 | 0.00 | 0.00 | 0.00 | 84 | 1014.0 |
| 20260902172852 | 77 | 167 | 8.0 | 13.0 | 0.00 | 0.00 | 0.00 | 85 | 1014.1 |
| 20260902172353 | 77 | 174 | 8.0 | 12.0 | 0.00 | 0.00 | 0.00 | 85 | 1014.3 |
| 20260902171851 | 76 | 154 | 8.0 | 14.0 | 0.00 | 0.00 | 0.00 | 85 | 1014.1 |
| 20260902171351 | 76 | 160 | 8.0 | 14.0 | 0.00 | 0.00 | 0.00 | 85 | 1014.2 |
| 20260902170349 | 76 | 177 | 9.0 | 15.0 | 0.00 | 0.00 | 0.00 | 86 | 1014.2 |
| 20260902165849 | 76 | 200 | 9.0 | 14.0 | 0.00 | 0.00 | 0.00 | 87 | 1014.4 |
| 20260902165347 | 75 | 151 | 9.0 | 14.0 | 0.00 | 0.00 | 0.00 | 87 | 1014.4 |
| 20260902164849 | 76 | 157 | 8.0 | 13.0 | 0.00 | 0.00 | 0.00 | 86 | 1014.4 |
| 20260902164344 | 75 | 172 | 8.0 | 13.0 | 0.00 | 0.00 | 0.00 | 87 | 1014.3 |
| 20260902163845 | 75 | 164 | 8.0 | 13.0 | 0.00 | 0.00 | 0.00 | 88 | 1014.5 |
| 20260902162344 | 74 | 164 | 9.0 | 14.0 | 0.00 | 0.00 | 0.00 | 88 | 1014.6 |
| 20260902161842 | 74 | 199 | 7.0 | 13.0 | 0.00 | 0.00 | 0.00 | 89 | 1014.5 |
| 20260902161336 | 75 | 151 | 2.0 | 11.0 | 0.00 | 0.00 | 0.00 | 88 | 1014.6 |
| 20260902160835 | 75 | 163 | 2.0 | 7.0 | 0.00 | 0.00 | 0.00 | 87 | 1014.6 |
| 20260902160334 | 75 | 163 | 4.0 | 7.0 | 0.00 | 0.00 | 0.00 | 86 | 1014.7 |
| 20260902155831 | 75 | 196 | 4.0 | 7.0 | 0.00 | 0.00 | 0.00 | 86 | 1014.5 |
| 20260902155330 | 75 | 230 | 5.0 | 8.0 | 0.00 | 0.00 | 0.00 | 86 | 1014.5 |
| 20260902154830 | 75 | 197 | 5.0 | 8.0 | 0.00 | 0.00 | 0.00 | 86 | 1014.5 |
| 20260902154330 | 76 | 215 | 4.0 | 8.0 | 0.00 | 0.00 | 0.00 | 86 | 1014.5 |
| 20260902153828 | 76 | 225 | 4.0 | 9.0 | 0.00 | 0.00 | 0.00 | 87 | 1014.5 |
| 20260902153326 | 76 | 157 | 5.0 | 10.0 | 0.00 | 0.00 | 0.00 | 87 | 1014.4 |
| 20260902152826 | 75 | 171 | 6.0 | 10.0 | 0.00 | 0.00 | 0.00 | 86 | 1014.3 |
| 20260902151826 | 75 | 157 | 4.0 | 10.0 | 0.00 | 0.00 | 0.00 | 87 | 1014.5 |
| 20260902151326 | 74 | 171 | 3.0 | 8.0 | 0.00 | 0.00 | 0.00 | 87 | 1014.4 |
| 20260902150828 | 74 | 178 | 3.0 | 11.0 | 0.00 | 0.00 | 0.00 | 88 | 1014.4 |
| 20260902150326 | 74 | 198 | 4.0 | 11.0 | 0.00 | 0.00 | 0.00 | 88 | 1014.3 |
| 20260902145325 | 74 | 171 | 1.0 | 6.0 | 0.00 | 0.00 | 0.00 | 89 | 1014.5 |
| 20260902143813 | 73 | 181 | 2.0 | 5.0 | 0.00 | 0.00 | 0.00 | 90 | 1014.9 |
| 20260902142801 | 72 | 182 | 2.0 | 6.0 | 0.00 | 0.00 | 0.00 | 90 | 1014.9 |
| 20260902141749 | 72 | 180 | 2.0 | 6.0 | 0.00 | 0.00 | 0.00 | 90 | 1015.1 |
| 20260902141243 | 72 | 173 | 2.0 | 6.0 | 0.00 | 0.00 | 0.00 | 90 | 1015.2 |
| 20260902140737 | 72 | 163 | 1.0 | 5.0 | 0.00 | 0.00 | 0.00 | 90 | 1015.1 |
| 20260902140232 | 71 | 167 | 0.0 | 4.0 | 0.00 | 0.00 | 0.00 | 91 | 1015.2 |
| 20260902135725 | 71 | 171 | 0.0 | 4.0 | 0.00 | 0.00 | 0.00 | 90 | 1015.3 |
| 20260902135219 | 71 | 208 | 0.0 | 3.0 | 0.00 | 0.00 | 0.00 | 91 | 1015.5 |
| 20260902134713 | 71 | 198 | 0.0 | 4.0 | 0.00 | 0.00 | 0.00 | 91 | 1015.6 |
| 20260902133702 | 71 | 199 | 0.0 | 3.0 | 0.00 | 0.00 | 0.00 | 91 | 1015.7 |
| 20260902133156 | 70 | 198 | 0.0 | 2.0 | 0.00 | 0.00 | 0.00 | 91 | 1015.6 |
| 20260902132649 | 70 | 212 | 0.0 | 0.0 | 0.00 | 0.00 | 0.00 | 92 | 1015.6 |
| 20260902132143 | 70 | 171 | 0.0 | 1.0 | 0.00 | 0.00 | 0.00 | 92 | 1015.6 |
| 20260902131637 | 70 | 171 | 0.0 | 1.0 | 0.00 | 0.00 | 0.00 | 91 | 1015.7 |
| 20260902131131 | 70 | 171 | 0.0 | 0.0 | 0.00 | 0.00 | 0.00 | 92 | 1015.7 |
| 20260902130625 | 70 | 171 | 0.0 | 0.0 | 0.00 | 0.00 | 0.00 | 92 | 1015.7 |
| 20260902130119 | 69 | 171 | 0.0 | 0.0 | 0.00 | 0.00 | 0.00 | 92 | 1015.8 |
| 20260902125614 | 69 | 171 | 0.0 | 1.0 | 0.00 | 0.00 | 0.00 | 93 | 1015.9 |
| 20260902125107 | 69 | 171 | 0.0 | 2.0 | 0.00 | 0.00 | 0.00 | 92 | 1016.0 |
| 20260902124601 | 69 | 171 | 0.0 | 2.0 | 0.00 | 0.00 | 0.00 | 92 | 1016.0 |
| 20260902124055 | 69 | 172 | 0.0 | 2.0 | 0.00 | 0.00 | 0.00 | 92 | 1015.9 |
| 20260902123554 | 69 | 175 | 1.0 | 4.0 | 0.00 | 0.00 | 0.00 | 93 | 1015.8 |
| 20260902123043 | 69 | 163 | 1.0 | 4.0 | 0.00 | 0.00 | 0.00 | 93 | 1015.7 |
| 20260902122537 | 69 | 0 | 0.0 | 3.0 | 0.00 | 0.00 | 0.00 | 93 | 1015.6 |
| 20260902121025 | 68 | 165 | 0.0 | 5.0 | 0.00 | 0.00 | 0.00 | 94 | 1015.7 |
| 20260902120524 | 68 | 178 | 0.0 | 0.0 | 0.00 | 0.00 | 0.00 | 94 | 1015.8 |
| 20260902120023 | 68 | 178 | 0.0 | 0.0 | 0.00 | 0.00 | 0.00 | 94 | 1015.8 |
| 20260902115023 | 68 | 177 | 0.0 | 0.0 | 0.00 | 0.00 | 0.00 | 94 | 1015.9 |
| 20260902114523 | 68 | 177 | 0.0 | 0.0 | 0.00 | 0.00 | 0.00 | 94 | 1015.8 |
| 20260902114024 | 68 | 177 | 0.0 | 0.0 | 0.00 | 0.00 | 0.00 | 94 | 1015.8 |
| 20260902113523 | 68 | 177 | 0.0 | 0.0 | 0.00 | 0.00 | 0.00 | 94 | 1015.7 |
| 20260902113022 | 68 | 177 | 0.0 | 0.0 | 0.00 | 0.00 | 0.00 | 94 | 1015.4 |
| 20260902112522 | 68 | 177 | 0.0 | 0.0 | 0.00 | 0.00 | 0.00 | 94 | 1015.2 |
| 20260902112021 | 68 | 177 | 0.0 | 0.0 | 0.00 | 0.00 | 0.00 | 94 | 1015.0 |
| 20260902111521 | 68 | 177 | 2.0 | 0.0 | 0.00 | 0.00 | 0.00 | 94 | 1015.0 |
| 20260902111021 | 0 | 0.0 | 0.0 | 0.00 | 0.00 | 0.00 | 1015.3 | ||
| 20260902110519 | 0 | 0.0 | 0.0 | 0.00 | 0.00 | 0.00 | 1015.1 | ||
| 20260902110017 | 0 | 0.0 | 0.0 | 0.00 | 0.00 | 0.00 | 1015.0 | ||
| 20260902105506 | 0 | 0.0 | 0.0 | 0.00 | 0.00 | 0.00 | 1014.9 | ||
| 20260902104926 | 0 | 0.0 | 0.0 | 0.00 | 0.00 | 0.00 | 1015.0 | ||
| 20260902104424 | 0 | 0.0 | 0.0 | 0.00 | 0.00 | 0.00 | 1015.1 | ||
| 20260902103921 | 0 | 0.0 | 0.0 | 0.00 | 0.00 | 0.00 | 1015.3 | ||
| 20260902103328 | 0 | 0.0 | 0.0 | 0.00 | 0.00 | 0.00 | 1015.4 | ||
| 20260902102320 | 0 | 0.0 | 0.0 | 0.00 | 0.00 | 0.00 | 1015.6 | ||
| 20260902101723 | 0 | 0.0 | 0.0 | 0.00 | 0.00 | 0.00 | 1015.8 | ||
| 20260902101221 | 0 | 0.0 | 0.0 | 0.00 | 0.00 | 0.00 | 1015.8 | ||
| 20260902095112 | 0 | 0.0 | 0.0 | 0.00 | 0.00 | 0.00 | 1015.6 | ||
| 20260902094518 | 0 | 0.0 | 0.0 | 0.00 | 0.00 | 0.00 | 1015.6 | ||
| 20260902094013 | 0 | 0.0 | 0.0 | 0.00 | 0.00 | 0.00 | 1015.5 | ||
| 20260902093426 | 0 | 0.0 | 0.0 | 0.00 | 0.00 | 0.00 | 1015.5 | ||
| 20260902092912 | 0 | 0.0 | 0.0 | 0.00 | 0.00 | 0.00 | 1015.7 | ||
| 20260902092320 | 0 | 0.0 | 0.0 | 0.00 | 0.00 | 0.00 | 1015.8 | ||
| 20260902091809 | 0 | 0.0 | 0.0 | 0.00 | 0.00 | 0.00 | 1015.9 | ||
| 20260902091303 | 0 | 0.0 | 0.0 | 0.00 | 0.00 | 0.00 | 1015.9 | ||
| 20260902090712 | 0 | 0.0 | 0.0 | 0.00 | 0.00 | 0.00 | 1015.9 | ||
| 20260902085021 | 0 | 0.0 | 0.0 | 0.00 | 0.00 | 0.00 | 1015.9 | ||
| 20260902084519 | 0 | 0.0 | 0.0 | 0.00 | 0.00 | 0.00 | 1015.8 | ||
| 20260902083925 | 0 | 0.0 | 0.0 | 0.00 | 0.00 | 0.00 | 1015.9 | ||
| 20260902083359 | 0 | 0.0 | 0.0 | 0.00 | 0.00 | 0.00 | 1016.0 | ||
| 20260902082822 | 0 | 0.0 | 0.0 | 0.00 | 0.00 | 0.00 | 1016.0 | ||
| 20260902082225 | 0 | 0.0 | 0.0 | 0.00 | 0.00 | 0.00 | 1016.0 | ||
| 20260902081723 | 0 | 0.0 | 0.0 | 0.00 | 0.00 | 0.00 | 1015.9 | ||
| 20260902081224 | 68 | 195 | 2.0 | 6.0 | 0.00 | 0.00 | 0.00 | 93 | 1015.8 |
| 20260902080217 | 68 | 195 | 2.0 | 5.0 | 0.00 | 0.00 | 0.00 | 93 | 1016.0 |
| 20260902075715 | 68 | 195 | 2.0 | 6.0 | 0.00 | 0.00 | 0.00 | 93 | 1016.0 |
| 20260902075211 | 69 | 156 | 3.0 | 6.0 | 0.00 | 0.00 | 0.00 | 93 | 1015.9 |
| 20260902074711 | 69 | 166 | 3.0 | 6.0 | 0.00 | 0.00 | 0.00 | 93 | 1015.9 |
| 20260902074211 | 69 | 163 | 4.0 | 7.0 | 0.00 | 0.00 | 0.00 | 93 | 1015.8 |
| 20260902073707 | 69 | 149 | 4.0 | 8.0 | 0.00 | 0.00 | 0.00 | 93 | 1015.7 |
| 20260902073207 | 69 | 187 | 5.0 | 8.0 | 0.00 | 0.00 | 0.00 | 93 | 1015.7 |
| 20260902072707 | 69 | 154 | 5.0 | 10.0 | 0.00 | 0.00 | 0.00 | 94 | 1015.7 |
| 20260902071707 | 69 | 147 | 5.0 | 8.0 | 0.00 | 0.00 | 0.00 | 94 | 1015.7 |
| 20260902071207 | 68 | 162 | 5.0 | 8.0 | 0.00 | 0.00 | 0.00 | 94 | 1015.6 |
| 20260902070707 | 68 | 160 | 4.0 | 8.0 | 0.00 | 0.00 | 0.00 | 94 | 1015.7 |
| 20260902070207 | 68 | 173 | 3.0 | 7.0 | 0.00 | 0.00 | 0.00 | 94 | 1015.7 |
| 20260902065707 | 68 | 163 | 3.0 | 6.0 | 0.00 | 0.00 | 0.00 | 95 | 1015.6 |